Stündliche Wetter Abramovka

Heute, 25 Juni, Freitag

Zeit Temperatur Niederschläge Wind Luftdruck Luftfeuchtigkeit
00:00 +26°C° 0 mm 2 m/S 757 mmHg 34%
01:00 +25°C° 0 mm 2 m/S 757 mmHg 35%
02:00 +25°C° 0 mm 2 m/S 757 mmHg 35%
03:00 +24°C° 0 mm 3 m/S 757 mmHg 36%
04:00 +24°C° 0 mm 2 m/S 757 mmHg 40%
05:00 +24°C° 0 mm 2 m/S 757 mmHg 44%
06:00 +24°C° 0 mm 2 m/S 757 mmHg 49%
07:00 +26°C° 0 mm 3 m/S 757 mmHg 45%
08:00 +28°C° 0 mm 3 m/S 757 mmHg 41%
09:00 +31°C° 0 mm 3 m/S 757 mmHg 38%
10:00 +33°C° 0 mm 4 m/S 757 mmHg 34%
11:00 +34°C° 0 mm 4 m/S 757 mmHg 31%
12:00 +36°C° 0 mm 4 m/S 757 mmHg 28%
13:00 +36°C° 0 mm 4 m/S 756 mmHg 26%
14:00 +36°C° 0 mm 4 m/S 756 mmHg 25%
15:00 +37°C° 0 mm 4 m/S 756 mmHg 24%
16:00 +36°C° 0 mm 3 m/S 756 mmHg 28%
17:00 +36°C° 0 mm 2 m/S 756 mmHg 32%
18:00 +34°C° 0 mm 1 m/S 756 mmHg 36%
19:00 +32°C° 0 mm 1 m/S 755 mmHg 37%
20:00 +30°C° 0 mm 1 m/S 755 mmHg 38%
21:00 +28°C° 0 mm 2 m/S 755 mmHg 39%
22:00 +27°C° 0 mm 2 m/S 755 mmHg 45%
23:00 +26°C° 0 mm 2 m/S 755 mmHg 51%

Morgen, 26 Juni, Samstag

Zeit Temperatur Niederschläge Wind Luftdruck Luftfeuchtigkeit
00:00 +25°C° 0 mm 3 m/S 754 mmHg 57%
01:00 +25°C° 0 mm 3 m/S 754 mmHg 60%
02:00 +25°C° 0 mm 3 m/S 754 mmHg 63%
03:00 +24°C° 0 mm 3 m/S 754 mmHg 66%
04:00 +24°C° 0 mm 3 m/S 754 mmHg 67%
05:00 +24°C° 0 mm 3 m/S 754 mmHg 68%
06:00 +25°C° 0 mm 2 m/S 754 mmHg 69%
07:00 +27°C° 0 mm 3 m/S 754 mmHg 62%
08:00 +29°C° 0 mm 4 m/S 754 mmHg 55%
09:00 +32°C° 0 mm 5 m/S 754 mmHg 48%
10:00 +33°C° 0 mm 4 m/S 754 mmHg 43%
11:00 +35°C° 0 mm 4 m/S 754 mmHg 37%
12:00 +36°C° 0 mm 4 m/S 754 mmHg 31%
13:00 +37°C° 0 mm 4 m/S 754 mmHg 30%
14:00 +37°C° 0 mm 4 m/S 753 mmHg 28%
15:00 +38°C° 0 mm 3 m/S 753 mmHg 26%
16:00 +37°C° 0 mm 3 m/S 753 mmHg 33%
17:00 +35°C° 0 mm 2 m/S 753 mmHg 39%
18:00 +33°C° 0 mm 1 m/S 753 mmHg 46%
19:00 +32°C° 0 mm 1 m/S 753 mmHg 48%
20:00 +30°C° 0 mm 1 m/S 753 mmHg 50%
21:00 +28°C° 0 mm 1 m/S 753 mmHg 52%
22:00 +28°C° 0 mm 1 m/S 753 mmHg 54%
23:00 +27°C° 0 mm 1 m/S 753 mmHg 57%

übermorgen, 27 Juni, Sonntag

Zeit Temperatur Niederschläge Wind Luftdruck Luftfeuchtigkeit
00:00 +26°C° 0 mm 1 m/S 753 mmHg 59%
01:00 +26°C° 0 mm 1 m/S 753 mmHg 60%
02:00 +26°C° 0 mm 1 m/S 753 mmHg 60%
03:00 +26°C° 0 mm 1 m/S 753 mmHg 60%
04:00 +26°C° 0 mm 1 m/S 753 mmHg 61%
05:00 +26°C° 0 mm 1 m/S 753 mmHg 62%
06:00 +27°C° 0 mm 1 m/S 753 mmHg 63%
07:00 +28°C° 0 mm 1 m/S 753 mmHg 59%
08:00 +30°C° 0 mm 1 m/S 753 mmHg 54%
09:00 +31°C° 0 mm 1 m/S 753 mmHg 50%
10:00 +32°C° 0 mm 1 m/S 753 mmHg 46%
11:00 +34°C° 0 mm 1 m/S 753 mmHg 43%
12:00 +36°C° 0 mm 2 m/S 753 mmHg 40%
13:00 +36°C° 0 mm 2 m/S 753 mmHg 39%
14:00 +37°C° 0 mm 2 m/S 753 mmHg 38%
15:00 +37°C° 0 mm 2 m/S 753 mmHg 37%
16:00 +36°C° 0 mm 2 m/S 753 mmHg 42%
17:00 +36°C° 0 mm 3 m/S 753 mmHg 46%
18:00 +35°C° 0 mm 3 m/S 753 mmHg 51%
19:00 +33°C° 0 mm 3 m/S 753 mmHg 59%
20:00 +30°C° 0 mm 3 m/S 753 mmHg 68%
21:00 +28°C° 0 mm 4 m/S 754 mmHg 76%
22:00 +27°C° 0.1 mm 3 m/S 754 mmHg 77%
23:00 +26°C° 0.1 mm 3 m/S 754 mmHg 77%

28 Juni, Montag

Zeit Temperatur Niederschläge Wind Luftdruck Luftfeuchtigkeit
00:00 +25°C° 0.1 mm 3 m/S 754 mmHg 77%
01:00 +24°C° 0.3 mm 2 m/S 754 mmHg 80%
02:00 +24°C° 0.3 mm 2 m/S 754 mmHg 82%
03:00 +23°C° 0.3 mm 2 m/S 754 mmHg 84%
04:00 +24°C° 0 mm 2 m/S 754 mmHg 84%
05:00 +24°C° 0 mm 2 m/S 754 mmHg 84%
06:00 +24°C° 0 mm 2 m/S 754 mmHg 83%
07:00 +26°C° 0 mm 3 m/S 754 mmHg 77%
08:00 +27°C° 0 mm 4 m/S 754 mmHg 72%
09:00 +29°C° 0 mm 5 m/S 754 mmHg 66%
10:00 +30°C° 0 mm 5 m/S 754 mmHg 62%
11:00 +32°C° 0 mm 5 m/S 754 mmHg 57%
12:00 +33°C° 0 mm 4 m/S 754 mmHg 53%
13:00 +34°C° 0 mm 4 m/S 754 mmHg 51%
14:00 +34°C° 0 mm 5 m/S 754 mmHg 48%
15:00 +34°C° 0 mm 5 m/S 754 mmHg 46%
16:00 +33°C° 0 mm 4 m/S 754 mmHg 51%
17:00 +32°C° 0 mm 4 m/S 754 mmHg 56%
18:00 +30°C° 0 mm 4 m/S 754 mmHg 60%
19:00 +29°C° 0 mm 4 m/S 754 mmHg 64%
20:00 +27°C° 0 mm 4 m/S 754 mmHg 69%
21:00 +26°C° 0 mm 4 m/S 754 mmHg 73%
22:00 +25°C° 0 mm 4 m/S 754 mmHg 77%
23:00 +23°C° 0 mm 4 m/S 754 mmHg 82%

29 Juni, Dienstag

Zeit Temperatur Niederschläge Wind Luftdruck Luftfeuchtigkeit
00:00 +22°C° 0 mm 3 m/S 754 mmHg 86%
01:00 +22°C° 0 mm 3 m/S 754 mmHg 88%
02:00 +22°C° 0 mm 3 m/S 754 mmHg 90%
03:00 +21°C° 0 mm 3 m/S 754 mmHg 92%
04:00 +22°C° 0 mm 3 m/S 754 mmHg 92%
05:00 +22°C° 0 mm 3 m/S 754 mmHg 91%
06:00 +22°C° 0 mm 3 m/S 754 mmHg 91%
07:00 +23°C° 0 mm 4 m/S 755 mmHg 84%
08:00 +26°C° 0 mm 4 m/S 755 mmHg 78%
09:00 +27°C° 0 mm 4 m/S 755 mmHg 71%
10:00 +27°C° 0.1 mm 4 m/S 755 mmHg 68%
11:00 +28°C° 0.1 mm 4 m/S 755 mmHg 65%
12:00 +28°C° 0.1 mm 4 m/S 755 mmHg 62%
13:00 +28°C° 0 mm 4 m/S 755 mmHg 59%
14:00 +29°C° 0 mm 4 m/S 755 mmHg 57%
15:00 +29°C° 0 mm 3 m/S 755 mmHg 55%
16:00 +29°C° 0 mm 3 m/S 755 mmHg 55%
17:00 +29°C° 0 mm 3 m/S 755 mmHg 55%
18:00 +29°C° 0 mm 3 m/S 755 mmHg 56%
19:00 +28°C° 0 mm 2 m/S 755 mmHg 57%
20:00 +27°C° 0 mm 2 m/S 755 mmHg 59%
21:00 +26°C° 0 mm 2 m/S 755 mmHg 60%
22:00 +25°C° 0 mm 2 m/S 755 mmHg 61%
23:00 +25°C° 0 mm 2 m/S 756 mmHg 62%

30 Juni, Mittwoch

Zeit Temperatur Niederschläge Wind Luftdruck Luftfeuchtigkeit
00:00 +25°C° 0 mm 2 m/S 756 mmHg 62%
01:00 +24°C° 0 mm 2 m/S 756 mmHg 65%
02:00 +23°C° 0 mm 2 m/S 756 mmHg 67%
03:00 +21°C° 0 mm 2 m/S 756 mmHg 69%
04:00 +21°C° 0 mm 2 m/S 756 mmHg 70%
05:00 +21°C° 0 mm 2 m/S 756 mmHg 71%
06:00 +21°C° 0 mm 2 m/S 756 mmHg 72%
07:00 +24°C° 0 mm 2 m/S 756 mmHg 68%
08:00 +25°C° 0 mm 2 m/S 756 mmHg 63%
09:00 +26°C° 0 mm 2 m/S 757 mmHg 58%
10:00 +27°C° 0 mm 3 m/S 757 mmHg 53%
11:00 +28°C° 0 mm 3 m/S 756 mmHg 47%
12:00 +30°C° 0 mm 4 m/S 756 mmHg 41%
13:00 +29°C° 0 mm 4 m/S 756 mmHg 42%
14:00 +29°C° 0 mm 4 m/S 756 mmHg 43%
15:00 +29°C° 0 mm 4 m/S 756 mmHg 44%
16:00 +28°C° 0 mm 4 m/S 756 mmHg 47%
17:00 +28°C° 0 mm 3 m/S 757 mmHg 50%
18:00 +27°C° 0 mm 3 m/S 757 mmHg 53%
19:00 +26°C° 0 mm 3 m/S 757 mmHg 57%
20:00 +25°C° 0 mm 2 m/S 757 mmHg 61%
21:00 +24°C° 0 mm 2 m/S 757 mmHg 65%
22:00 +23°C° 0 mm 1 m/S 757 mmHg 67%
23:00 +22°C° 0 mm 1 m/S 757 mmHg 70%
Mehr zeigen

Wir brauchen deine Erlaubnis

Meteoprog und unser Service Anbieter werden persönliche Daten aufbewahren, so wie Cookies, Geräte Bezeichnung oder ähnliche Technologien von deinem Gerät und Prozess, so wie Persönliche Daten Inhalte und Werbungen, genauso wie social Media und den Verkehr zu analysieren.

  • Aufbewahrung und/oder Zugang zu deiner Geräte Informationen.

    Cookies, Geräte Bezeichnung oder andere Informationen, können aufbewahrt oder Zugang zu deinem Gerät erhalten, für den Grund, der oben angegeben wird.

  • Personalisierte Werbung und Inhalte, Messungen, Einblick in das Publikum und Produkt Entwicklung.

    Werbungen und Inhalte können personalisiert werden, basierend auf ein Profil. Mehr Daten können besser personalisierte Werbungen und Inhalte hinzufügen. Werbung und Inhalte können gezeigt und gemessen werden. Einblicke über das Publikum, welche die Werbung gesehen haben und den Inhalt, können abgeleitet werden. So wie Daten können genutzt werden, um es zu verbessern oder die Benutzer Erfahrung zu verbessern das System und die Software.

Wenn du “Ich stimme zu” klickst, erlaubst du uns, die Cookies zu benutzen die Geräte Bezeichnung, den Web oder ähnliche Technologien zu benutzen. Deine Settings, können in deinem Gerät bei deinem Browser geändert werden.

Für den bestimmten Zweck, berechtigten Interessen beruhen darauf, mehr als auf den Inhalt. Du kannst mehr darüber in unseren Privaten und Cookie Politik lesen.